weather.gov     
National Weather Service

Terminal Aerodrome Forecast
NWS Homepage
This page is being discontinued on March 12, 2014.
The same data is available at this site. Please update your bookmarks.
Thank you, and we apologize for the inconvenience.
Please send an email to SR-SRH.Webmaster@noaa.gov with any concerns.


Current Version
Previous Version:    01  02  03  04  05  06  07  08  09  10  11  12  13  14  15  16  17  18  19  20  21  22  23  24  25  26  27  28  29  30  
   31  32  33  34  35  
[Printable]
218
FTUS43 KDTX 241120
TAFYIP
TAF
KYIP 241120Z 2412/2512 21020G30KT P6SM -SHRA BKN015
     FM241900 23026G40KT P6SM BKN025 OVC035
     FM250000 23022G34KT P6SM OVC025
     FM250400 24016G23KT P6SM OVC035=




218
FTUS43 KDTX 241120
TAFYIP
TAF
KYIP 241120Z 2412/2512 21020G30KT P6SM -SHRA BKN015
     FM241900 23026G40KT P6SM BKN025 OVC035
     FM250000 23022G34KT P6SM OVC025
     FM250400 24016G23KT P6SM OVC035=


U.S. Dept. of Commerce
NOAA National Weather Service
1325 East West Highway
Silver Spring, MD 20910
E-mail: w-nws.webmaster@noaa.gov
Page last modified: May 16, 2007
NATIONAL WEATHER SERVICE: for Safety, for Work, for Fun - FOR LIFE